Вернуться в каталог

ONEWEB-0706

АктивенСвязьPO
NORAD 61611·PAYLOAD·🇬🇧 United Kingdom

Запущен Oct 20, 2024 с Vandenberg Space Force Base

Loading…

Ближайшие Пролёты (ближайшие 24 часа)

TLE

СвежийSource: CelesTrak SupGP

Эпоха: Sep 14, 2026, 15:35 UTC

1 61611C 24188T   26257.64979583  .00002105  00000+0  60379-2 0  2572
2 61611  87.8920  18.4550 0001148 102.8656   7.0942 13.10375037    19

Отслеживайте ONEWEB-0706 в реальном времени с AllMySat

Download on the App Store